Location: Central Falls
(41.8900°N, 71.3929°W)
Time: 03:42:37
(UTC+00:00)

Vanguard 2 Rocket - Pass Details

Date: 08 December 2023
Orbit: 555 x 3309 km, 32.9° (Epoch: 01 March)

Event Time Altitude Azimuth Distance (km) Brightness Sun altitude
Rises 02:36:47 0° 276° (W) 7,113 11.9 -58.4°
Reaches altitude 10° 02:47:26 10° 249° (WSW) 5,528 11.0 -60.1°
Maximum altitude 02:51:04 11° 235° (SW) 5,164 10.8 -60.7°
Enters shadow 02:54:15 10° 222° (SW) 4,977 10.6 -61.2°
Drops below altitude 10° 02:54:24 10° 222° (SW) 4,971 - -61.2°
Sets 03:02:04 0° 191° (S) 5,204 - -62.4°
